,,,PA_Meas_PMT16A,,PR_Meas_QMR101_102,,RH_Meas_QMH101,,SR_Meas_QMS101,,TA_Meas_QMH101,,GenWind,,GenWind,
date,time,status,PA,status,PR,status,RH,status,SR,status,TA,status,DirAvg,status,SpdAvg,
2009-05-20, 00:00:04,VALID,1009.19,VALID,0,VALID,88.0241,VALID,0,VALID,25.4657,VALID,306,VALID,0,
2009-05-20, 00:01:04,VALID,1009.19,VALID,0,VALID,88.0698,VALID,0,VALID,25.4462,VALID,306,VALID,0,
2009-05-20, 00:02:04,VALID,1009.17,VALID,0,VALID,88.0393,VALID,0,VALID,25.4267,VALID,306,VALID,0,
2009-05-20, 00:03:04,VALID,1009.16,VALID,0,VALID,87.9631,VALID,0,VALID,25.4072,VALID,306,VALID,0,
2009-05-20, 00:04:04,VALID,1009.16,VALID,0,VALID,87.8182,VALID,0.105969,VALID,25.3683,VALID,306,VALID,0,
2009-05-20, 00:05:04,VALID,1009.15,VALID,0,VALID,87.78,VALID,0.105969,VALID,25.3683,VALID,306,VALID,0,
2009-05-20, 00:06:04,VALID,1009.14,VALID,0,VALID,87.7724,VALID,0,VALID,25.3683,VALID,306,VALID,0,
2009-05-20, 00:07:04,VALID,1009.13,VALID,0,VALID,87.6504,VALID,0.105969,VALID,25.3098,VALID,306,VALID,0,
2009-05-20, 00:08:04,VALID,1009.16,VALID,0,VALID,87.475,VALID,0,VALID,25.2903,VALID,306,VALID,0,
2009-05-20, 00:09:04,VALID,1009.14,VALID,0,VALID,87.4293,VALID,0,VALID,25.2903,VALID,306,VALID,0,
2009-05-20, 00:10:04,VALID,1009.12,VALID,0,VALID,87.5513,VALID,0,VALID,25.2708,VALID,306,VALID,0,
2009-05-20, 00:11:04,VALID,1009.11,VALID,0,VALID,87.719,VALID,0,VALID,25.2903,VALID,306,VALID,0,
2009-05-20, 00:12:04,VALID,1009.13,VALID,0,VALID,87.719,VALID,0,VALID,25.2708,VALID,306,VALID,0,
2009-05-20, 00:13:04,VALID,1009.09,VALID,0,VALID,87.8944,VALID,0,VALID,25.2708,VALID,306,VALID,0,
2009-05-20, 00:14:04,VALID,1009.12,VALID,0,VALID,88.0546,VALID,0,VALID,25.2513,VALID,306,VALID,0,
2009-05-20, 00:15:04,VALID,1009.1,VALID,0,VALID,88.1385,VALID,0,VALID,25.2708,VALID,306,VALID,0,
2009-05-20, 00:16:04,VALID,1009.1,VALID,0,VALID,88.2528,VALID,0,VALID,25.2513,VALID,306,VALID,0,
2009-05-20, 00:17:04,VALID,1009.11,VALID,0,VALID,88.3444,VALID,0,VALID,25.2513,VALID,306,VALID,0,
2009-05-20, 00:18:04,VALID,1009.12,VALID,0,VALID,88.4435,VALID,0.105969,VALID,25.2513,VALID,306,VALID,0,
2009-05-20, 00:19:04,VALID,1009.13,VALID,0,VALID,88.4816,VALID,0,VALID,25.2513,VALID,306,VALID,0,
2009-05-20, 00:20:04,VALID,1009.12,VALID,0,VALID,88.5502,VALID,0,VALID,25.2513,VALID,306,VALID,0,
2009-05-20, 00:21:04,VALID,1009.12,VALID,0,VALID,88.596,VALID,0,VALID,25.2318,VALID,306,VALID,0,
2009-05-20, 00:22:04,VALID,1009.1,VALID,0,VALID,88.6418,VALID,0,VALID,25.2318,VALID,306,VALID,0,
2009-05-20, 00:23:04,VALID,1009.07,VALID,0,VALID,88.6494,VALID,0,VALID,25.2123,VALID,306,VALID,0,
2009-05-20, 00:24:04,VALID,1009.08,VALID,0,VALID,88.6799,VALID,0,VALID,25.2532,VALID,306,VALID,0,
2009-05-20, 00:25:04,VALID,1009.06,VALID,0,VALID,88.7104,VALID,0,VALID,25.2123,VALID,306,VALID,0,
2009-05-20, 00:26:04,VALID,1009.05,VALID,0,VALID,88.7104,VALID,0,VALID,25.2123,VALID,306,VALID,0,
2009-05-20, 00:27:04,VALID,1009.04,VALID,0,VALID,88.7333,VALID,0,VALID,25.2123,VALID,306,VALID,0,
2009-05-20, 00:28:04,VALID,1009.02,VALID,0,VALID,88.7333,VALID,0.105969,VALID,25.2123,VALID,306,VALID,0,
2009-05-20, 00:29:04,VALID,1009.01,VALID,0,VALID,88.7333,VALID,0,VALID,25.2123,VALID,306,VALID,0,
2009-05-20, 00:30:04,VALID,1008.99,VALID,0,VALID,88.7256,VALID,0.105969,VALID,25.2123,VALID,306,VALID,0,
2009-05-20, 00:31:04,VALID,1008.95,VALID,0,VALID,88.7638,VALID,0,VALID,25.2123,VALID,306,VALID,0,
2009-05-20, 00:32:04,VALID,1008.96,VALID,0,VALID,88.7638,VALID,0,VALID,25.1928,VALID,306,VALID,0,
2009-05-20, 00:33:04,VALID,1008.96,VALID,0,VALID,88.7561,VALID,0,VALID,25.1947,VALID,306,VALID,0,
2009-05-20, 00:34:04,VALID,1008.96,VALID,0,VALID,88.7638,VALID,0.105969,VALID,25.1733,VALID,306,VALID,0,
2009-05-20, 00:35:04,VALID,1008.95,VALID,0,VALID,88.7561,VALID,0.105969,VALID,25.1733,VALID,306,VALID,0,
2009-05-20, 00:36:04,VALID,1008.96,VALID,0,VALID,88.779,VALID,0,VALID,25.1538,VALID,306,VALID,0,
2009-05-20, 00:37:04,VALID,1008.96,VALID,0,VALID,88.779,VALID,0,VALID,25.1733,VALID,306,VALID,0,
2009-05-20, 00:38:04,VALID,1008.95,VALID,0,VALID,88.8095,VALID,0,VALID,25.1733,VALID,306,VALID,0,
2009-05-20, 00:39:04,VALID,1008.96,VALID,0,VALID,88.84,VALID,0.105969,VALID,25.1733,VALID,306,VALID,0,
2009-05-20, 00:40:04,VALID,1008.96,VALID,0,VALID,88.8553,VALID,0.105969,VALID,25.1538,VALID,306,VALID,0,
2009-05-20, 00:41:04,VALID,1008.91,VALID,0,VALID,88.8705,VALID,0,VALID,25.1538,VALID,306,VALID,0,
2009-05-20, 00:42:04,VALID,1008.91,VALID,0,VALID,88.8477,VALID,0.105969,VALID,25.1538,VALID,306,VALID,0,
2009-05-20, 00:43:04,VALID,1008.92,VALID,0,VALID,88.8934,VALID,0,VALID,25.1343,VALID,306,VALID,0,
2009-05-20, 00:44:04,VALID,1008.96,VALID,0,VALID,88.9163,VALID,0.105969,VALID,25.1538,VALID,306,VALID,0,
2009-05-20, 00:45:04,VALID,1008.92,VALID,0,VALID,88.9697,VALID,0.105969,VALID,25.1519,VALID,306,VALID,0,
2009-05-20, 00:46:04,VALID,1008.9,VALID,0,VALID,88.9697,VALID,0.105969,VALID,25.1733,VALID,306,VALID,0,
2009-05-20, 00:47:04,VALID,1008.92,VALID,0,VALID,88.9925,VALID,0.105969,VALID,25.1343,VALID,306,VALID,0,
2009-05-20, 00:48:04,VALID,1008.91,VALID,0,VALID,89.0002,VALID,0.105969,VALID,25.1324,VALID,306,VALID,0,
2009-05-20, 00:49:04,VALID,1008.91,VALID,0,VALID,89.0154,VALID,0,VALID,25.1557,VALID,306,VALID,0,
2009-05-20, 00:50:04,VALID,1008.92,VALID,0,VALID,89.0078,VALID,0,VALID,25.1343,VALID,306,VALID,0,
2009-05-20, 00:51:04,VALID,1008.94,VALID,0,VALID,89.0459,VALID,0,VALID,25.1343,VALID,306,VALID,0,
2009-05-20, 00:52:04,VALID,1008.95,VALID,0,VALID,89.0536,VALID,0,VALID,25.1557,VALID,306,VALID,0,
2009-05-20, 00:53:04,VALID,1008.97,VALID,0,VALID,89.0917,VALID,0,VALID,25.1947,VALID,306,VALID,0,
2009-05-20, 00:54:04,VALID,1008.95,VALID,0,VALID,89.1069,VALID,0,VALID,25.1947,VALID,306,VALID,0,
2009-05-20, 00:55:04,VALID,1008.95,VALID,0,VALID,89.0993,VALID,0,VALID,25.2142,VALID,306,VALID,0,
2009-05-20, 00:56:04,VALID,1008.96,VALID,0,VALID,89.0841,VALID,0,VALID,25.2337,VALID,306,VALID,0,
2009-05-20, 00:57:04,VALID,1008.94,VALID,0,VALID,89.0688,VALID,0,VALID,25.2123,VALID,306,VALID,0,
2009-05-20, 00:58:04,VALID,1008.94,VALID,0,VALID,89.0459,VALID,0,VALID,25.2142,VALID,306,VALID,0,
2009-05-20, 00:59:04,VALID,1008.94,VALID,0,VALID,89.0154,VALID,0,VALID,25.2142,VALID,306,VALID,0,
2009-05-20, 01:00:04,VALID,1008.96,VALID,0,VALID,88.9925,VALID,0,VALID,25.1928,VALID,306,VALID,0,
2009-05-20, 01:01:04,VALID,1008.92,VALID,0,VALID,88.9697,VALID,0,VALID,25.1538,VALID,306,VALID,0,
2009-05-20, 01:02:04,VALID,1008.94,VALID,0,VALID,88.901,VALID,0.105969,VALID,25.1538,VALID,306,VALID,0,
2009-05-20, 01:03:04,VALID,1008.93,VALID,0,VALID,88.8782,VALID,0.105969,VALID,25.1129,VALID,306,VALID,0,
2009-05-20, 01:04:04,VALID,1008.89,VALID,0,VALID,88.8858,VALID,0,VALID,25.1343,VALID,306,VALID,0,
2009-05-20, 01:05:04,VALID,1008.9,VALID,0,VALID,88.901,VALID,0.105969,VALID,25.1129,VALID,306,VALID,0,
2009-05-20, 01:06:04,VALID,1008.88,VALID,0,VALID,88.8858,VALID,0.105969,VALID,25.1343,VALID,306,VALID,0,
2009-05-20, 01:07:04,VALID,1008.9,VALID,0,VALID,88.9163,VALID,0.105969,VALID,25.1343,VALID,306,VALID,0,
2009-05-20, 01:08:04,VALID,1008.89,VALID,0,VALID,88.9392,VALID,0,VALID,25.1343,VALID,306,VALID,0,
2009-05-20, 01:09:04,VALID,1008.88,VALID,0,VALID,88.9544,VALID,0.105969,VALID,25.1148,VALID,306,VALID,0,
2009-05-20, 01:10:04,VALID,1008.87,VALID,0,VALID,88.9697,VALID,0.105969,VALID,25.0934,VALID,306,VALID,0,
2009-05-20, 01:11:04,VALID,1008.88,VALID,0,VALID,89.0002,VALID,0.105969,VALID,25.0934,VALID,306,VALID,0,
2009-05-20, 01:12:04,VALID,1008.87,VALID,0,VALID,89.0002,VALID,0.105969,VALID,25.1148,VALID,306,VALID,0,
2009-05-20, 01:13:04,VALID,1008.89,VALID,0,VALID,89.0002,VALID,0.105969,VALID,25.1148,VALID,306,VALID,0,
2009-05-20, 01:14:04,VALID,1008.87,VALID,0,VALID,89.0154,VALID,0.105969,VALID,25.1148,VALID,306,VALID,0,
2009-05-20, 01:15:04,VALID,1008.86,VALID,0,VALID,89.0307,VALID,0,VALID,25.0954,VALID,306,VALID,0,
2009-05-20, 01:16:04,VALID,1008.85,VALID,0,VALID,89.0536,VALID,0,VALID,25.1148,VALID,306,VALID,0,
2009-05-20, 01:17:04,VALID,1008.82,VALID,0,VALID,89.0383,VALID,0,VALID,25.1148,VALID,306,VALID,0,
2009-05-20, 01:18:04,VALID,1008.83,VALID,0,VALID,89.0459,VALID,0,VALID,25.0954,VALID,306,VALID,0,
2009-05-20, 01:19:04,VALID,1008.82,VALID,0,VALID,89.0612,VALID,0,VALID,25.0954,VALID,306,VALID,0,
2009-05-20, 01:20:04,VALID,1008.8,VALID,0,VALID,89.0764,VALID,0,VALID,25.0954,VALID,306,VALID,0,
2009-05-20, 01:21:04,VALID,1008.81,VALID,0,VALID,89.0764,VALID,0,VALID,25.0954,VALID,306,VALID,0,
2009-05-20, 01:22:04,VALID,1008.8,VALID,0,VALID,89.0688,VALID,0,VALID,25.0564,VALID,306,VALID,0,
2009-05-20, 01:23:04,VALID,1008.81,VALID,0,VALID,89.0459,VALID,0,VALID,25.0369,VALID,306,VALID,0,
2009-05-20, 01:24:04,VALID,1008.8,VALID,0,VALID,89.0002,VALID,0,VALID,25.0583,VALID,306,VALID,0,
2009-05-20, 01:25:04,VALID,1008.81,VALID,0,VALID,88.962,VALID,0,VALID,24.9979,VALID,306,VALID,0,
2009-05-20, 01:26:04,VALID,1008.75,VALID,0,VALID,88.9544,VALID,0,VALID,24.9979,VALID,306,VALID,0,
2009-05-20, 01:27:04,VALID,1008.79,VALID,0,VALID,88.9544,VALID,0,VALID,24.9979,VALID,306,VALID,0,
2009-05-20, 01:28:04,VALID,1008.76,VALID,0,VALID,88.9468,VALID,0.105969,VALID,24.9784,VALID,306,VALID,0,
2009-05-20, 01:29:04,VALID,1008.73,VALID,0,VALID,88.9239,VALID,0,VALID,24.9589,VALID,306,VALID,0,
2009-05-20, 01:30:04,VALID,1008.72,VALID,0,VALID,88.9087,VALID,0,VALID,24.9589,VALID,306,VALID,0,
2009-05-20, 01:31:04,VALID,1008.69,VALID,0,VALID,88.9163,VALID,0,VALID,24.9394,VALID,306,VALID,0,
2009-05-20, 01:32:04,VALID,1008.7,VALID,0,VALID,88.8705,VALID,0,VALID,24.9199,VALID,306,VALID,0,
2009-05-20, 01:33:04,VALID,1008.69,VALID,0,VALID,88.8629,VALID,0,VALID,24.9199,VALID,306,VALID,0,
2009-05-20, 01:34:04,VALID,1008.67,VALID,0,VALID,88.8324,VALID,0,VALID,24.9199,VALID,306,VALID,0,
2009-05-20, 01:35:04,VALID,1008.69,VALID,0,VALID,88.8172,VALID,0.105969,VALID,24.9004,VALID,306,VALID,0,
2009-05-20, 01:36:04,VALID,1008.67,VALID,0,VALID,88.7638,VALID,0,VALID,24.8615,VALID,306,VALID,0,
2009-05-20, 01:37:04,VALID,1008.64,VALID,0,VALID,88.7104,VALID,0,VALID,24.842,VALID,306,VALID,0,
2009-05-20, 01:38:04,VALID,1008.65,VALID,0,VALID,88.6646,VALID,0,VALID,24.8615,VALID,306,VALID,0,
2009-05-20, 01:39:04,VALID,1008.65,VALID,0,VALID,88.6189,VALID,0,VALID,24.842,VALID,306,VALID,0,
2009-05-20, 01:40:04,VALID,1008.65,VALID,0,VALID,88.6113,VALID,0,VALID,24.842,VALID,306,VALID,0,
2009-05-20, 01:41:04,VALID,1008.67,VALID,0,VALID,88.6036,VALID,0,VALID,24.842,VALID,306,VALID,0,
2009-05-20, 01:42:04,VALID,1008.63,VALID,0,VALID,88.5731,VALID,0,VALID,24.8225,VALID,306,VALID,0,
2009-05-20, 01:43:04,VALID,1008.61,VALID,0,VALID,88.5884,VALID,0,VALID,24.842,VALID,306,VALID,0,
2009-05-20, 01:44:04,VALID,1008.63,VALID,0,VALID,88.6265,VALID,0,VALID,24.842,VALID,306,VALID,0,
2009-05-20, 01:45:04,VALID,1008.6,VALID,0,VALID,88.6646,VALID,0,VALID,24.842,VALID,306,VALID,0,
2009-05-20, 01:46:04,VALID,1008.62,VALID,0,VALID,88.6875,VALID,0,VALID,24.842,VALID,306,VALID,0,
2009-05-20, 01:47:04,VALID,1008.61,VALID,0,VALID,88.7028,VALID,0.105969,VALID,24.842,VALID,306,VALID,0,
2009-05-20, 01:48:04,VALID,1008.61,VALID,0,VALID,88.7028,VALID,0,VALID,24.8225,VALID,306,VALID,0,
2009-05-20, 01:49:04,VALID,1008.6,VALID,0,VALID,88.7104,VALID,0,VALID,24.803,VALID,306,VALID,0,
2009-05-20, 01:50:04,VALID,1008.6,VALID,0,VALID,88.6951,VALID,0,VALID,24.8049,VALID,306,VALID,0,
2009-05-20, 01:51:04,VALID,1008.61,VALID,0,VALID,88.7028,VALID,0,VALID,24.7835,VALID,306,VALID,0,
2009-05-20, 01:52:04,VALID,1008.6,VALID,0,VALID,88.718,VALID,0,VALID,24.803,VALID,306,VALID,0,
2009-05-20, 01:53:04,VALID,1008.59,VALID,0,VALID,88.718,VALID,0,VALID,24.7835,VALID,306,VALID,0,
2009-05-20, 01:54:04,VALID,1008.58,VALID,0,VALID,88.7485,VALID,0,VALID,24.7835,VALID,306,VALID,0,
2009-05-20, 01:55:04,VALID,1008.61,VALID,0,VALID,88.7561,VALID,0,VALID,24.7835,VALID,306,VALID,0,
2009-05-20, 01:56:04,VALID,1008.58,VALID,0,VALID,88.7714,VALID,0,VALID,24.7835,VALID,306,VALID,0,
2009-05-20, 01:57:04,VALID,1008.61,VALID,0,VALID,88.7638,VALID,0,VALID,24.764,VALID,306,VALID,0,
2009-05-20, 01:58:05,VALID,1008.59,VALID,0,VALID,88.7638,VALID,0,VALID,24.7659,VALID,306,VALID,0,
2009-05-20, 01:59:05,VALID,1008.59,VALID,0,VALID,88.8172,VALID,0.105969,VALID,24.7835,VALID,306,VALID,0,
2009-05-20, 02:00:05,VALID,1008.6,VALID,0,VALID,88.8553,VALID,0,VALID,24.8049,VALID,306,VALID,0,
2009-05-20, 02:01:05,VALID,1008.58,VALID,0,VALID,88.8858,VALID,0,VALID,24.803,VALID,306,VALID,0,
2009-05-20, 02:02:05,VALID,1008.59,VALID,0,VALID,88.9544,VALID,0,VALID,24.8244,VALID,306,VALID,0,
2009-05-20, 02:03:05,VALID,1008.58,VALID,0,VALID,89.0002,VALID,0,VALID,24.8438,VALID,306,VALID,0,
2009-05-20, 02:04:05,VALID,1008.61,VALID,0,VALID,89.0307,VALID,0,VALID,24.8225,VALID,306,VALID,0,
2009-05-20, 02:05:05,VALID,1008.57,VALID,0,VALID,89.0764,VALID,0,VALID,24.842,VALID,306,VALID,0,
2009-05-20, 02:06:05,VALID,1008.6,VALID,0,VALID,89.0993,VALID,0,VALID,24.842,VALID,306,VALID,0,
2009-05-20, 02:07:05,VALID,1008.6,VALID,0,VALID,89.1298,VALID,0,VALID,24.842,VALID,306,VALID,0,
2009-05-20, 02:08:05,VALID,1008.58,VALID,0,VALID,89.1527,VALID,0.105969,VALID,24.842,VALID,306,VALID,0,
2009-05-20, 02:09:05,VALID,1008.56,VALID,0,VALID,89.1756,VALID,0,VALID,24.8401,VALID,306,VALID,0,
2009-05-20, 02:10:05,VALID,1008.54,VALID,0,VALID,89.1984,VALID,0,VALID,24.842,VALID,306,VALID,0,
2009-05-20, 02:11:05,VALID,1008.54,VALID,0,VALID,89.1984,VALID,0,VALID,24.842,VALID,306,VALID,0,
2009-05-20, 02:12:05,VALID,1008.51,VALID,0,VALID,89.2213,VALID,0,VALID,24.8225,VALID,306,VALID,0,
2009-05-20, 02:13:05,VALID,1008.5,VALID,0,VALID,89.2442,VALID,0,VALID,24.8225,VALID,306,VALID,0,
2009-05-20, 02:14:05,VALID,1008.49,VALID,0,VALID,89.2289,VALID,0,VALID,24.8225,VALID,306,VALID,0,
2009-05-20, 02:15:05,VALID,1008.45,VALID,0,VALID,89.2289,VALID,0,VALID,24.803,VALID,306,VALID,0,
2009-05-20, 02:16:05,VALID,1008.46,VALID,0,VALID,89.2442,VALID,0,VALID,24.803,VALID,306,VALID,0,
2009-05-20, 02:17:05,VALID,1008.45,VALID,0,VALID,89.2594,VALID,0,VALID,24.803,VALID,306,VALID,0,
2009-05-20, 02:18:05,VALID,1008.44,VALID,0,VALID,89.2213,VALID,0,VALID,24.8225,VALID,306,VALID,0,
2009-05-20, 02:19:05,VALID,1008.44,VALID,0,VALID,89.2518,VALID,0,VALID,24.803,VALID,306,VALID,0,
2009-05-20, 02:20:05,VALID,1008.46,VALID,0,VALID,89.2289,VALID,0,VALID,24.803,VALID,306,VALID,0,
2009-05-20, 02:21:05,VALID,1008.4,VALID,0,VALID,89.2442,VALID,0,VALID,24.7835,VALID,306,VALID,0,
2009-05-20, 02:22:05,VALID,1008.43,VALID,0,VALID,89.2442,VALID,0,VALID,24.7854,VALID,306,VALID,0,
2009-05-20, 02:23:05,VALID,1008.45,VALID,0,VALID,89.2594,VALID,0,VALID,24.764,VALID,306,VALID,0,
2009-05-20, 02:24:05,VALID,1008.43,VALID,0,VALID,89.2442,VALID,0.105969,VALID,24.764,VALID,306,VALID,0,
2009-05-20, 02:25:05,VALID,1008.45,VALID,0,VALID,89.2747,VALID,0,VALID,24.7445,VALID,306,VALID,0,
2009-05-20, 02:26:05,VALID,1008.43,VALID,0,VALID,89.2823,VALID,0,VALID,24.725,VALID,306,VALID,0,
2009-05-20, 02:27:05,VALID,1008.44,VALID,0,VALID,89.2899,VALID,0,VALID,24.7445,VALID,306,VALID,0,
2009-05-20, 02:28:05,VALID,1008.42,VALID,0,VALID,89.3128,VALID,0,VALID,24.725,VALID,306,VALID,0,
2009-05-20, 02:29:05,VALID,1008.41,VALID,0,VALID,89.3357,VALID,0,VALID,24.7055,VALID,306,VALID,0,
2009-05-20, 02:30:05,VALID,1008.39,VALID,0,VALID,89.3281,VALID,0,VALID,24.7269,VALID,306,VALID,0,
2009-05-20, 02:31:05,VALID,1008.38,VALID,0,VALID,89.3433,VALID,0,VALID,24.7055,VALID,306,VALID,0,
2009-05-20, 02:32:05,VALID,1008.41,VALID,0,VALID,89.351,VALID,0,VALID,24.686,VALID,306,VALID,0,
2009-05-20, 02:33:05,VALID,1008.39,VALID,0,VALID,89.3662,VALID,0,VALID,24.686,VALID,306,VALID,0,
2009-05-20, 02:34:05,VALID,1008.35,VALID,0,VALID,89.3815,VALID,0,VALID,24.686,VALID,306,VALID,0,
2009-05-20, 02:35:05,VALID,1008.34,VALID,0,VALID,89.3586,VALID,0.105969,VALID,24.7055,VALID,306,VALID,0,
2009-05-20, 02:36:05,VALID,1008.3,VALID,0,VALID,89.4043,VALID,0,VALID,24.686,VALID,306,VALID,0,
2009-05-20, 02:37:05,VALID,1008.29,VALID,0,VALID,89.3967,VALID,0,VALID,24.686,VALID,306,VALID,0,
2009-05-20, 02:38:05,VALID,1008.29,VALID,0,VALID,89.4043,VALID,0,VALID,24.6666,VALID,306,VALID,0,
2009-05-20, 02:39:05,VALID,1008.26,VALID,0,VALID,89.3967,VALID,0,VALID,24.6666,VALID,306,VALID,0,
2009-05-20, 02:40:05,VALID,1008.24,VALID,0,VALID,89.412,VALID,0,VALID,24.6471,VALID,306,VALID,0,
2009-05-20, 02:41:05,VALID,1008.24,VALID,0,VALID,89.412,VALID,0.105969,VALID,24.6471,VALID,306,VALID,0,
2009-05-20, 02:42:05,VALID,1008.23,VALID,0,VALID,89.4272,VALID,0,VALID,24.6276,VALID,306,VALID,0,
2009-05-20, 02:43:05,VALID,1008.24,VALID,0,VALID,89.4272,VALID,0,VALID,24.5867,VALID,306,VALID,0,
2009-05-20, 02:44:05,VALID,1008.24,VALID,0,VALID,89.4501,VALID,0,VALID,24.6294,VALID,306,VALID,0,
2009-05-20, 02:45:05,VALID,1008.23,VALID,0,VALID,89.4653,VALID,0,VALID,24.5886,VALID,306,VALID,0,
2009-05-20, 02:46:05,VALID,1008.26,VALID,0,VALID,89.473,VALID,0,VALID,24.5905,VALID,21,VALID,0,
2009-05-20, 02:47:05,VALID,1008.25,VALID,0,VALID,89.4501,VALID,0,VALID,24.5496,VALID,41,VALID,0,
2009-05-20, 02:48:05,VALID,1008.25,VALID,0,VALID,89.4577,VALID,0,VALID,24.5691,VALID,41,VALID,0,
2009-05-20, 02:49:05,VALID,1008.24,VALID,0,VALID,89.473,VALID,0,VALID,24.5691,VALID,41,VALID,0,
2009-05-20, 02:50:05,VALID,1008.23,VALID,0,VALID,89.4501,VALID,0,VALID,24.5691,VALID,41,VALID,0,
2009-05-20, 02:51:05,VALID,1008.26,VALID,0,VALID,89.4577,VALID,0,VALID,24.5905,VALID,41,VALID,0,
2009-05-20, 02:52:05,VALID,1008.2,VALID,0,VALID,89.4425,VALID,0,VALID,24.5691,VALID,41,VALID,0,
2009-05-20, 02:53:05,VALID,1008.22,VALID,0,VALID,89.4348,VALID,0,VALID,24.5691,VALID,41,VALID,0,
2009-05-20, 02:54:05,VALID,1008.2,VALID,0,VALID,89.412,VALID,0.105969,VALID,24.5691,VALID,41,VALID,0,
2009-05-20, 02:55:05,VALID,1008.18,VALID,0,VALID,89.4196,VALID,0,VALID,24.5691,VALID,41,VALID,0,
2009-05-20, 02:56:05,VALID,1008.18,VALID,0,VALID,89.3967,VALID,0.105969,VALID,24.5886,VALID,41,VALID,0,
2009-05-20, 02:57:05,VALID,1008.16,VALID,0,VALID,89.3815,VALID,0,VALID,24.5672,VALID,41,VALID,0,
2009-05-20, 02:58:05,VALID,1008.18,VALID,0,VALID,89.3891,VALID,0.105969,VALID,24.5691,VALID,41,VALID,0,
2009-05-20, 02:59:05,VALID,1008.21,VALID,0,VALID,89.3815,VALID,0,VALID,24.5496,VALID,41,VALID,0,
2009-05-20, 03:00:05,VALID,1008.19,VALID,0,VALID,89.3662,VALID,0,VALID,24.5496,VALID,41,VALID,0,
2009-05-20, 03:01:05,VALID,1008.17,VALID,0,VALID,89.351,VALID,0,VALID,24.5496,VALID,41,VALID,0,
2009-05-20, 03:02:05,VALID,1008.17,VALID,0,VALID,89.3433,VALID,0,VALID,24.5301,VALID,41,VALID,0,
2009-05-20, 03:03:05,VALID,1008.16,VALID,0,VALID,89.3433,VALID,0.105969,VALID,24.5301,VALID,41,VALID,0,
2009-05-20, 03:04:05,VALID,1008.15,VALID,0,VALID,89.3052,VALID,0,VALID,24.5106,VALID,41,VALID,0,
2009-05-20, 03:05:05,VALID,1008.16,VALID,0,VALID,89.3204,VALID,0.105969,VALID,24.4911,VALID,41,VALID,0,
2009-05-20, 03:06:05,VALID,1008.14,VALID,0,VALID,89.3204,VALID,0,VALID,24.493,VALID,41,VALID,0,
2009-05-20, 03:07:05,VALID,1008.12,VALID,0,VALID,89.3281,VALID,0,VALID,24.4911,VALID,41,VALID,0,
2009-05-20, 03:08:05,VALID,1008.14,VALID,0,VALID,89.3433,VALID,0,VALID,24.4735,VALID,41,VALID,0,
2009-05-20, 03:09:05,VALID,1008.11,VALID,0,VALID,89.3128,VALID,0,VALID,24.4522,VALID,41,VALID,0,
2009-05-20, 03:10:05,VALID,1008.15,VALID,0,VALID,89.3281,VALID,0,VALID,24.4522,VALID,41,VALID,0,
2009-05-20, 03:11:05,VALID,1008.13,VALID,0,VALID,89.3433,VALID,0.105969,VALID,24.4522,VALID,41,VALID,0,
2009-05-20, 03:12:05,VALID,1008.13,VALID,0,VALID,89.351,VALID,0,VALID,24.4522,VALID,41,VALID,0,
2009-05-20, 03:13:05,VALID,1008.11,VALID,0,VALID,89.3433,VALID,0,VALID,24.4345,VALID,41,VALID,0,
2009-05-20, 03:14:05,VALID,1008.13,VALID,0,VALID,89.3357,VALID,0,VALID,24.4327,VALID,41,VALID,0,
2009-05-20, 03:15:05,VALID,1008.11,VALID,0,VALID,89.3738,VALID,0,VALID,24.4327,VALID,41,VALID,0,
2009-05-20, 03:16:05,VALID,1008.14,VALID,0,VALID,89.351,VALID,0.105969,VALID,24.4132,VALID,41,VALID,0,
2009-05-20, 03:17:05,VALID,1008.17,VALID,0,VALID,89.3662,VALID,0.105969,VALID,24.4132,VALID,41,VALID,0,
2009-05-20, 03:18:05,VALID,1008.16,VALID,0,VALID,89.3662,VALID,0,VALID,24.3742,VALID,41,VALID,0,
2009-05-20, 03:19:05,VALID,1008.15,VALID,0,VALID,89.3815,VALID,0,VALID,24.3742,VALID,41,VALID,0,
2009-05-20, 03:20:05,VALID,1008.15,VALID,0,VALID,89.4043,VALID,0,VALID,24.3742,VALID,41,VALID,0,
2009-05-20, 03:21:05,VALID,1008.19,VALID,0,VALID,89.4272,VALID,0,VALID,24.3742,VALID,41,VALID,0,
2009-05-20, 03:22:05,VALID,1008.18,VALID,0,VALID,89.4501,VALID,0.105969,VALID,24.3937,VALID,41,VALID,0,
2009-05-20, 03:23:05,VALID,1008.2,VALID,0,VALID,89.4577,VALID,0.105969,VALID,24.3937,VALID,41,VALID,0,
2009-05-20, 03:24:05,VALID,1008.19,VALID,0,VALID,89.4653,VALID,0.105969,VALID,24.3742,VALID,41,VALID,0,
2009-05-20, 03:25:05,VALID,1008.2,VALID,0,VALID,89.473,VALID,0.105969,VALID,24.3742,VALID,41,VALID,0,
2009-05-20, 03:26:05,VALID,1008.21,VALID,0,VALID,89.4882,VALID,0.105969,VALID,24.3937,VALID,41,VALID,0,
2009-05-20, 03:27:05,VALID,1008.21,VALID,0,VALID,89.4882,VALID,0.105969,VALID,24.3724,VALID,41,VALID,0,
2009-05-20, 03:28:05,VALID,1008.24,VALID,0,VALID,89.4958,VALID,0.105969,VALID,24.3937,VALID,41,VALID,0,
2009-05-20, 03:29:05,VALID,1008.22,VALID,0,VALID,89.4958,VALID,0,VALID,24.3742,VALID,41,VALID,0,
2009-05-20, 03:30:05,VALID,1008.24,VALID,0,VALID,89.4653,VALID,0.105969,VALID,24.3724,VALID,41,VALID,0,
2009-05-20, 03:31:05,VALID,1008.24,VALID,0,VALID,89.4501,VALID,0.105969,VALID,24.3742,VALID,41,VALID,0,
2009-05-20, 03:32:05,VALID,1008.25,VALID,0,VALID,89.4806,VALID,0,VALID,24.3547,VALID,41,VALID,0,
2009-05-20, 03:33:05,VALID,1008.24,VALID,0,VALID,89.4501,VALID,0.105969,VALID,24.3352,VALID,41,VALID,0,
2009-05-20, 03:34:05,VALID,1008.25,VALID,0,VALID,89.4577,VALID,0.105969,VALID,24.3566,VALID,41,VALID,0,
2009-05-20, 03:35:05,VALID,1008.25,VALID,0,VALID,89.4501,VALID,0.105969,VALID,24.3158,VALID,41,VALID,0,
2009-05-20, 03:36:05,VALID,1008.26,VALID,0,VALID,89.4653,VALID,0.105969,VALID,24.2963,VALID,41,VALID,0,
2009-05-20, 03:37:05,VALID,1008.26,VALID,0,VALID,89.4882,VALID,0.105969,VALID,24.2963,VALID,41,VALID,0,
2009-05-20, 03:38:05,VALID,1008.28,VALID,0,VALID,89.4882,VALID,0.105969,VALID,24.2768,VALID,41,VALID,0,
2009-05-20, 03:39:05,VALID,1008.28,VALID,0,VALID,89.4882,VALID,0,VALID,24.2573,VALID,41,VALID,0,
2009-05-20, 03:40:05,VALID,1008.28,VALID,0,VALID,89.5035,VALID,0.105969,VALID,24.2573,VALID,41,VALID,0,
2009-05-20, 03:41:05,VALID,1008.27,VALID,0,VALID,89.5111,VALID,0.105969,VALID,24.2378,VALID,41,VALID,0,
2009-05-20, 03:42:05,VALID,1008.3,VALID,0,VALID,89.534,VALID,0,VALID,24.2183,VALID,41,VALID,0,
2009-05-20, 03:43:05,VALID,1008.28,VALID,0,VALID,89.534,VALID,0,VALID,24.2183,VALID,41,VALID,0,
2009-05-20, 03:44:05,VALID,1008.29,VALID,0,VALID,89.5416,VALID,0.105969,VALID,24.2183,VALID,41,VALID,0,
2009-05-20, 03:45:05,VALID,1008.29,VALID,0,VALID,89.5645,VALID,0,VALID,24.2202,VALID,41,VALID,0,
2009-05-20, 03:46:05,VALID,1008.33,VALID,0,VALID,89.5721,VALID,0,VALID,24.2007,VALID,41,VALID,0,
2009-05-20, 03:47:05,VALID,1008.32,VALID,0,VALID,89.5873,VALID,0,VALID,24.2007,VALID,41,VALID,0,
2009-05-20, 03:48:05,VALID,1008.33,VALID,0,VALID,89.6179,VALID,0,VALID,24.2007,VALID,41,VALID,0,
2009-05-20, 03:49:05,VALID,1008.33,VALID,0,VALID,89.6331,VALID,0,VALID,24.2007,VALID,41,VALID,0,
2009-05-20, 03:50:05,VALID,1008.37,VALID,0,VALID,89.6484,VALID,0,VALID,24.2025,VALID,41,VALID,0,
2009-05-20, 03:51:05,VALID,1008.34,VALID,0,VALID,89.6789,VALID,0,VALID,24.1812,VALID,41,VALID,0,
2009-05-20, 03:52:05,VALID,1008.35,VALID,0,VALID,89.6865,VALID,0,VALID,24.1812,VALID,41,VALID,0,
2009-05-20, 03:53:05,VALID,1008.32,VALID,0,VALID,89.7017,VALID,0,VALID,24.1812,VALID,41,VALID,0,
2009-05-20, 03:54:05,VALID,1008.33,VALID,0,VALID,89.7094,VALID,0,VALID,24.183,VALID,41,VALID,0,
2009-05-20, 03:55:05,VALID,1008.33,VALID,0,VALID,89.717,VALID,0,VALID,24.1617,VALID,41,VALID,0,
2009-05-20, 03:56:05,VALID,1008.33,VALID,0,VALID,89.7399,VALID,0,VALID,24.1227,VALID,41,VALID,0,